Regional Weather Roundup
Issued by NWS Sioux Falls, SD

Home | Current Version | Previous Version | Text Only | Print | Product List | Glossary On
Versions: 1 2 3 4 5 6 7 8 9 10 11 12 13 14 15 16 17 18 19 20 21 22 23 24 25 26 27 28 29 30 31 32 33 34 35 36 37 38 39 40 41 42 43 44 45 46 47 48 49 50
000
ASUS43 KFSD 260310
RWRFSD

WEATHER ROUNDUP FOR SE SOUTH DAKOTA/SW MINNESOTA/NW IOWA
NATIONAL WEATHER SERVICE SIOUX FALLS SD
900 PM CST THU DEC 25 2014

NOTE: "FAIR" INDICATES FEW OR NO CLOUDS BELOW 12,000 FEET WITH NO
SIGNIFICANT WEATHER AND OR OBSTRUCTIONS TO VISIBILITY.


SDZ038>040-050-052>070-260400-
SOUTHEAST SOUTH DAKOTA

CITY           SKY/WX    TMP DP  RH WIND       PRES   REMARKS
CHAMBERLAIN    LGT SNOW  26  24  93 N13G22    29.91R WCI  14
HURON          LGT SNOW  26  24  92 N14       29.92R VSB 1   WCI  14
MADISON        LGT SNOW  27  27 100 NE16      29.83R WCI  14
MITCHELL       CLOUDY    27  25  92 N21       29.88R WCI  13
SIOUX FALLS    FRZ DRZL  30  28  92 N17G23    29.80R FOG     WCI  18
WINNER         LGT SNOW  27  24  89 N17       29.90S FOG     WCI  14
YANKTON        CLOUDY    34  28  80 N12       29.80S WCI  25
$$

MNZ071-072-080-081-089-090-097-098-260400-
SOUTHWEST MINNESOTA

CITY           SKY/WX    TMP DP  RH WIND       PRES   REMARKS
FAIRMONT       CLOUDY    32  28  86 N7        29.78S WCI  26
JACKSON        MOCLDY    32  30  93 N10       29.79R WCI  24
LUVERNE        CLOUDY    32  30  93 NE13      29.79S WCI  22
MARSHALL       CLOUDY    30  27  86 N15       29.85S WCI  19
MONTEVIDEO     LGT SNOW  28  28 100 NE10      29.88S WCI  19
PIPESTONE      CLOUDY    28  28 100 NE13G21   29.79S WCI  18
REDWOOD FALLS  CLOUDY    33  31  92 N7        29.84S FOG     WCI  27
TRACY          CLOUDY    32  31  98 N12       29.82F FOG     WCI  23
WINDOM         MOCLDY    30  30 100 N10       29.80R FOG     WCI  21
WORTHINGTON    CLOUDY    30 -17  12 N13       29.79R WCI  20
$$

IAZ001>003-012>014-020>022-031-032-NEZ013-014-SDZ071-260400-
NORTHWEST IOWA

CITY           SKY/WX    TMP DP  RH WIND       PRES   REMARKS
CHEROKEE       CLEAR     31  31 100 N7        29.74R WCI  24
DENISON        PTCLDY    36  32  87 CALM      29.69R
ESTHERVILLE    CLOUDY    31  30  96 NE10      29.76S WCI  22
LE MARS        CLOUDY    34  32  93 NE10G16   29.76R WCI  26
ORANGE CITY    CLOUDY    34  30  86 NE9G17    29.75R WCI  26
SHELDON        CLOUDY    32  32 100 NE15G21   29.75S WCI  22
SIOUX CITY     MOCLDY    33  30  88 N10       29.74R WCI  25
SPENCER        CLOUDY    33  30  88 NE12      29.75S WCI  24
STORM LAKE     PTCLDY    30  28  93 NE9       29.73S WCI  22
$$

ABBREVIATIONS USED IN REMARKS
   TC - TEMPERATURE IN CELSIUS
  WCI - WIND CHILL INDEX
   HX - HEAT INDEX
  VSB - VISIBILITY



USA.gov is the U.S. government's official web portal to all federal, state and local government web resources and services.